DMSP 5D-2 F11 DEB, 28334

Orbit data source: Space-Track

DMSP 5D-2 F11 DEB, 28334 is space debris in SSO originally from a launch on Thu, 28 Nov 1991 UTC launched from the Air Force Western Test Range (AFWTR). Debris objects in space refer to the collection of defunct objects orbiting the Earth. Examples of debris include non-operational satellites, rocket bodies, and fragments generated from explosions, collisions, or faulty payload assembly.

Loading next visibility...
Identifier
28334, 1991-082AX
Orbit
SSO
Country
Flag of USUS
Related business
Manufacturer
Unknown
Mission
Spacecraft
Bus & Motor
Unknown
Mass
Unknown
Launch date (UTC)
1991-11-28 (35 years ago)
Launch vehicle
Unknown
Launch site
Air Force Western Test Range (AFWTR)
Object type
Payload
Rocket body
Debris
Shape & HBR
Unknown shape, 0.1 m
Radar Cross Section
Medium (>0.1 m² and <1 m²)

Expand to show TLE details & history
Last TLE update: 1 day ago

TLE from 1 day ago
0 DMSP 5D-2 F11 DEB
1 28334U 91082AX  26263.48585587  .00004568  00000-0  10657-2 0  9993
2 28334  98.8650 353.3054 0046721 276.3980  83.1896 14.54618097158279
Epoch: 2026-09-20T11:39Z
TLE epoch observation values (Epoch: 2026-09-20T11:39:37.947Z)
Latitude
0.00002°
Longitude
179.01793°
Altitude
709.786 km
Speed
7.503 km/s
True Right ascension
23h 33m 13s
True Declination
0° 00' 00"
Sunlit
Object was in full shadow at epoch
Visualization orbit readout
Latitude
Unknown
Longitude
Unknown
Altitude
Unknown
Speed
Unknown
Apparent Right ascension
Unknown
Apparent Declination
Unknown
Sunlit
N/A
Visualization observer readout
Local Sidereal Time
06:00:03
Azimuth
Unknown
Elevation
Unknown
Doppler factor
Unknown
Orbital elements
Apogee altitude
740.831 km
Perigee altitude
674.619 km
Semi-major axis
7,085.862 km
Eccentricity
0.00467
Inclination
98.865°
RAAN
353.3054°
Arg. of periapsis
276.398°
True anomaly
83.72157°
Mean anomaly
83.1896°
Eccentric anomaly
83.45555°
Mean motion
3.63877 °/min
Orbital period
98.93 mins
BSTAR
0.0010657

Documentation

Showing up to 5 results
|